TimeEDT,TemperatureF,Dew PointF,Humidity,Sea Level PressureIn,VisibilityMPH,Wind Direction,Wind SpeedMPH,Gust SpeedMPH,PrecipitationIn,Events,Conditions,WindDirDegrees,DateUTC
12:52 AM,44.1,34.0,68,30.15,10.0,NE,4.6,-,N/A,,Overcast,50,2013-04-12 04:52:00
1:52 AM,43.0,35.1,74,30.13,10.0,East,8.1,-,N/A,,Overcast,80,2013-04-12 05:52:00
2:52 AM,43.0,35.1,74,30.14,10.0,NE,5.8,-,N/A,,Overcast,40,2013-04-12 06:52:00
3:52 AM,43.0,33.1,68,30.15,10.0,NE,6.9,-,N/A,,Overcast,50,2013-04-12 07:52:00
4:52 AM,42.1,30.9,65,30.14,10.0,ENE,10.4,18.4,N/A,,Overcast,70,2013-04-12 08:52:00
5:52 AM,42.1,28.9,60,30.13,10.0,ENE,11.5,21.9,N/A,,Overcast,70,2013-04-12 09:52:00
6:52 AM,42.1,33.1,70,30.14,10.0,East,12.7,20.7,N/A,,Overcast,80,2013-04-12 10:52:00
7:52 AM,42.1,28.9,60,30.15,10.0,East,17.3,26.5,N/A,,Overcast,80,2013-04-12 11:52:00
8:52 AM,42.1,28.9,60,30.14,10.0,East,12.7,23.0,N/A,,Overcast,90,2013-04-12 12:52:00
9:52 AM,43.0,30.9,62,30.11,10.0,ESE,16.1,28.8,N/A,,Overcast,110,2013-04-12 13:52:00
10:52 AM,42.1,28.0,58,30.08,10.0,East,17.3,28.8,N/A,,Overcast,100,2013-04-12 14:52:00
11:52 AM,41.0,30.0,65,30.04,4.0,East,18.4,31.1,0.00,Rain,Light Rain,100,2013-04-12 15:52:00
12:47 PM,39.2,33.8,81,30.03,2.5,East,12.7,19.6,0.06,Rain,Light Rain,100,2013-04-12 16:47:00
12:52 PM,39.0,33.1,79,30.04,3.0,East,11.5,19.6,0.07,Rain,Light Rain,100,2013-04-12 16:52:00
1:17 PM,39.2,33.8,81,30.01,3.0,ESE,11.5,-,0.04,Rain,Rain,110,2013-04-12 17:17:00
1:37 PM,39.2,33.8,81,30.00,2.5,East,11.5,-,0.08,Rain,Light Rain,90,2013-04-12 17:37:00
1:41 PM,39.2,33.8,81,30.00,3.0,East,10.4,-,0.08,Rain,Light Rain,100,2013-04-12 17:41:00
1:52 PM,39.0,34.0,82,30.01,4.0,East,11.5,23.0,0.09,Rain,Light Rain,100,2013-04-12 17:52:00
2:15 PM,39.2,33.8,81,30.00,3.0,ESE,13.8,23.0,0.02,Rain,Light Rain,110,2013-04-12 18:15:00
2:34 PM,37.4,33.8,87,29.99,2.0,East,11.5,19.6,0.03,Rain,Light Rain,90,2013-04-12 18:34:00
2:45 PM,37.4,33.8,87,29.99,2.5,East,16.1,25.3,0.04,Rain,Light Rain,100,2013-04-12 18:45:00
2:52 PM,37.9,34.0,86,29.98,2.5,East,13.8,25.3,0.04,Rain,Light Rain,90,2013-04-12 18:52:00
2:56 PM,37.4,33.8,87,29.97,2.5,East,15.0,23.0,0.01,Rain,Light Rain,90,2013-04-12 18:56:00
3:14 PM,37.4,33.8,87,29.95,3.0,East,12.7,23.0,0.03,Rain,Light Rain,80,2013-04-12 19:14:00
3:52 PM,39.0,34.0,82,29.91,6.0,East,16.1,26.5,0.05,Rain,Light Rain,90,2013-04-12 19:52:00
4:52 PM,39.0,35.1,86,29.87,3.0,East,11.5,24.2,0.03,Rain,Light Rain,90,2013-04-12 20:52:00
4:59 PM,39.2,35.6,87,29.87,2.5,East,10.4,19.6,0.01,Rain,Rain,80,2013-04-12 20:59:00
5:13 PM,39.2,35.6,87,29.87,3.0,East,11.5,20.7,0.04,Rain,Light Rain,80,2013-04-12 21:13:00
5:21 PM,39.2,35.6,87,29.86,3.0,East,9.2,-,0.04,Rain,Light Rain,80,2013-04-12 21:21:00
5:24 PM,39.2,35.6,87,29.86,2.5,East,12.7,-,0.04,Rain,Light Rain,90,2013-04-12 21:24:00
5:26 PM,39.2,35.6,87,29.86,3.0,ENE,10.4,-,0.04,Rain,Light Rain,70,2013-04-12 21:26:00
5:52 PM,39.9,36.0,86,29.85,6.0,ENE,11.5,18.4,0.05,Rain,Light Rain,70,2013-04-12 21:52:00
6:35 PM,39.2,35.6,87,29.82,2.5,ENE,17.3,26.5,0.04,Rain,Rain,60,2013-04-12 22:35:00
6:48 PM,39.2,35.6,87,29.80,3.0,ENE,16.1,25.3,0.10,Rain,Rain,60,2013-04-12 22:48:00
6:52 PM,39.9,36.0,86,29.80,2.5,ENE,15.0,25.3,0.12,Rain,Heavy Rain,60,2013-04-12 22:52:00
7:26 PM,39.2,37.4,93,29.78,4.0,ENE,15.0,19.6,0.09,Rain,Light Rain,60,2013-04-12 23:26:00
7:41 PM,39.2,37.4,93,29.78,5.0,NE,11.5,-,0.11,Rain,Light Rain,40,2013-04-12 23:41:00
7:52 PM,39.9,37.0,89,29.78,9.0,NE,13.8,20.7,0.11,Rain,Light Rain,50,2013-04-12 23:52:00
8:52 PM,41.0,37.9,89,29.76,6.0,NE,16.1,25.3,0.01,,Overcast,40,2013-04-13 00:52:00
9:15 PM,41.0,37.4,87,29.76,2.5,NNE,16.1,-,0.00,Rain,Light Rain,30,2013-04-13 01:15:00
9:52 PM,41.0,37.0,86,29.76,2.0,NNE,16.1,27.6,0.00,Rain,Light Rain,30,2013-04-13 01:52:00
10:19 PM,41.0,37.4,87,29.75,1.8,NNE,15.0,24.2,0.00,Rain,Light Rain,30,2013-04-13 02:19:00
10:40 PM,39.2,37.4,93,29.74,2.0,NNE,16.1,29.9,0.00,Rain,Light Rain,30,2013-04-13 02:40:00
10:52 PM,39.9,37.0,89,29.74,2.5,NNE,18.4,25.3,0.00,Rain,Light Rain,20,2013-04-13 02:52:00
11:36 PM,39.2,37.4,93,29.73,3.0,NNE,18.4,25.3,0.01,,Overcast,20,2013-04-13 03:36:00
11:52 PM,39.9,37.0,89,29.73,3.0,NNE,16.1,24.2,0.01,,Overcast,20,2013-04-13 03:52:00